DELTA 1 DEB, 7035

Orbit data source: Space-Track

DELTA 1 DEB, 7035 is space debris in LEO originally from a launch on Tue, 06 Nov 1973 UTC launched from the Air Force Western Test Range (AFWTR). Debris objects in space refer to the collection of defunct objects orbiting the Earth. Examples of debris include non-operational satellites, rocket bodies, and fragments generated from explosions, collisions, or faulty payload assembly.

Loading next visibility...
Identifier
7035, 1973-086AB
Orbit
LEO
Country
Flag of USUS
Related business
Manufacturer
Unknown
Mission
Spacecraft
Bus & Motor
Unknown
Mass
Unknown
Launch date (UTC)
1973-11-06 (53 years ago)
Launch vehicle
Unknown
Launch site
Air Force Western Test Range (AFWTR)
Object type
Payload
Rocket body
Debris
Shape & HBR
Unknown shape, 0.2 m
Radar Cross Section
Medium (>0.1 m² and <1 m²)

Expand to show TLE details & history
Last TLE update: 2 days ago

TLE from 2 days ago
0 DELTA 1 DEB
1  7035U 73086AB  26262.24011905 -.00000144  00000-0 -13911-2 0  9997
2  7035 101.7844 165.5516 0318909 306.7862 210.5595 11.83662844281475
Epoch: 2026-09-19T05:45Z
TLE epoch observation values (Epoch: 2026-09-19T05:45:46.285Z)
Latitude
23.92362°
Longitude
-93.75677°
Altitude
1,982.787 km
Speed
6.811 km/s
True Right ascension
23h 23m 21s
True Declination
23° 48' 54"
Sunlit
Object was in full shadow at epoch
Visualization orbit readout
Latitude
Unknown
Longitude
Unknown
Altitude
Unknown
Speed
Unknown
Apparent Right ascension
Unknown
Apparent Declination
Unknown
Sunlit
N/A
Visualization observer readout
Local Sidereal Time
19:46:09
Azimuth
Unknown
Elevation
Unknown
Doppler factor
Unknown
Orbital elements
Apogee altitude
2,011.771 km
Perigee altitude
1,493.186 km
Semi-major axis
8,130.615 km
Eccentricity
0.03189
Inclination
101.7844°
RAAN
165.5516°
Arg. of periapsis
306.7862°
True anomaly
208.7635°
Mean anomaly
210.5595°
Eccentric anomaly
209.65543°
Mean motion
2.96045 °/min
Orbital period
121.6 mins
BSTAR
-0.0013911
Loading maneuver chart data...
Computing Atmospheric mass density...
Loading historical data...
Loading historical data...
Loading historical data...
Loading historical data...
Loading historical data...
Loading historical data...
Loading historical data...

Documentation

Showing up to 5 results
|